Weather in Asilan

Russia / Republic of Karelia     61°10′35″N   29°51′16″E
temp.,
°C
wind,
m/s
gust,
m/s
humid.,
%
clouds,
%
prec.,
mm/h
press.,
hPa
HPBL,
m
28 july, wed
wed2800:00+18ese116474 0.0 101517
03:00+17ese227358 0.0 101423
06:00+18ese2371100 0.0 101358
09:00+21e2460100 0.0 1012260
12:00+24ese3450100 0.0 1010577
15:00+24ese2349100 0.1 1009758
18:00+21ene1166100 0.8 1008176
21:00+17nne2496100 2.6 1007101
29 july, thu
thu2900:00+16e2697100 0.2 1006174
03:00+15ese2398100 0.9 1004107
06:00+16ssw119614 0.0 100354
09:00+20ssw248586 1.7 1001288
12:00+20sw5985100 2.2 1001797
15:00+19sw5107799 2.3 1000733
18:00+24sw485088 0.0 9981673
21:00+21sw48665 0.1 998362
30 july, fri
fri3000:00+17sw4118034 0.0 998369
03:00+16sw4128244 0.0 998503
06:00+16sw4118848 0.0 998609
09:00+20sw58597 0.0 9981312
12:00+22sw694647 0.0 9971808
15:00+20sw6957100 0.3 9971456
18:00+20sw5105788 0.1 9971312
21:00+18ssw496091 0.1 995673
31 july, sat
sat3100:00+14s310785 0.0 995320
03:00+13sse31092100 0.0 994378
06:00+14sse41094100 0.8 993616
09:00+16s238882 1.1 993515
12:00+19w347168 0.4 995984
15:00+19wsw477552 1.3 997908
18:00+21w475532 0.6 9981243
21:00+18sw247030 0.6 99885
1 august, sun
sun100:00+14ssw249680 0.0 99995
03:00+13sw269696 0.0 999127
06:00+15s259497 0.0 998143
09:00+18s358585 1.3 997415
12:00+22ssw585175 2.7 9961532
15:00+18sw5883100 4.3 997910
18:00+18sw5109083 4.6 997876
21:00+17sw4109120 5.4 997513